Regional Weather Roundup
Issued by NWS Bismarck, ND

Home | Current Version | Previous Version | Text Only | Print | Product List | Glossary On
Versions: 1 2 3 4 5 6 7 8 9 10 11 12 13 14 15 16 17 18 19 20 21 22 23 24 25 26 27 28 29 30 31 32 33 34 35 36 37 38 39 40 41 42 43 44 45 46 47 48 49 50
000
ASUS43 KBIS 210459
RWRBIS

NWR BROADCAST TEXT
NATIONAL WEATHER SERVICE BISMARCK ND
1200 AM CDT TUE OCT 21 2014

NOTE: "FAIR" INDICATES FEW OR NO CLOUDS BELOW 12,000 FEET WITH NO
SIGNIFICANT WEATHER AND/OR OBSTRUCTIONS TO VISIBILITY.


CITY           SKY/WX    TMP DP  RH WIND       PRES   REMARKS
WILLISTON      CLEAR     58  42  55 S5        29.82R
MINOT          CLEAR     45  35  68 E7        29.88S
MINOT AFB      NOT AVBL
BISMARCK       CLEAR     53  34  48 E9        29.93F
DICKINSON      NOT AVBL
GARRISON         N/A     46  37  71 E8        29.89F
HETTINGER ARPT CLEAR     50  38  63 E8        29.88F
JAMESTOWN      CLEAR     48  40  73 SE10      30.00S
CARRINGTON     FAIR      45  41  87 SE12      29.99F
OAKES            N/A     41  39  93 E8        30.01F
$$

CITY           SKY/WX    TMP DP  RH WIND       PRES   REMARKS
GRAND FORKS    CLEAR     42  37  82 SE8       30.05R
GRAND FORKS AF NOT AVBL
DEVILS LAKE    CLEAR     48  39  71 SE14      29.98S
FARGO          CLEAR     46  36  68 SE8       30.05R
CAVALIER       FAIR      43  37  81 SE7       30.05R
GRAFTON          N/A     39  37  93 SE8       30.05R
GWINNER        CLEAR     46  37  71 SE8       30.04S
$$

CITY           SKY/WX    TMP DP  RH WIND       PRES   REMARKS
ABERDEEN       CLEAR     44  36  73 SE7       30.01S
MOBRIDGE       CLEAR     58  35  42 SE17      29.90F
RAPID CITY     CLEAR     54  43  66 SE8       29.89F
GLASGOW        CLEAR     51  37  58 E14       29.73F
SIDNEY         CLEAR     50  41  71 CALM      29.82S
WOLF POINT     CLEAR     44  38  79 NE3       29.76F
GLENDIVE       CLEAR     52  39  62 SW6       29.82F
MILES CITY     CLEAR     60  42  51 SE12      29.79F
BAKER          CLEAR     49  41  74 E8        29.84F
$$

CITY           SKY/WX    TMP DP  RH WIND       PRES   REMARKS
BILLINGS       CLEAR     58  31  35 S6        29.81S
GREAT FALLS    CLEAR     62  33  33 S12       29.70F
$$




USA.gov is the U.S. government's official web portal to all federal, state and local government web resources and services.